• In Belarus
  • List of Countries
  • For 7 days
  • Water Temperature
  • Weather Map
  • Weather Widgets
  • user-avatar
    Login

    Hourly Weather Yerevan

    Today, 2 June, Tuesday

    Time Temperature Precipitation Wind Pressure Humidity
    00:00 +21°C° 0 mm 1 mps 687 mmHg 38%
    01:00 +21°C° 0 mm 1 mps 687 mmHg 38%
    02:00 +21°C° 0 mm 1 mps 687 mmHg 38%
    03:00 +21°C° 0 mm 1 mps 687 mmHg 40%
    04:00 +21°C° 0 mm 1 mps 687 mmHg 42%
    05:00 +22°C° 0 mm 1 mps 687 mmHg 43%
    06:00 +23°C° 0 mm 1 mps 687 mmHg 45%
    07:00 +25°C° 0 mm 1 mps 687 mmHg 39%
    08:00 +27°C° 0 mm 1 mps 687 mmHg 33%
    09:00 +28°C° 0 mm 1 mps 687 mmHg 27%
    10:00 +29°C° 0 mm 3 mps 687 mmHg 27%
    11:00 +30°C° 0 mm 4 mps 687 mmHg 27%
    12:00 +32°C° 0 mm 6 mps 687 mmHg 27%
    13:00 +30°C° 0.2 mm 5 mps 686 mmHg 31%
    14:00 +28°C° 0.2 mm 5 mps 686 mmHg 36%
    15:00 +27°C° 0.2 mm 4 mps 685 mmHg 41%
    16:00 +27°C° 0 mm 3 mps 685 mmHg 41%
    17:00 +28°C° 0 mm 2 mps 685 mmHg 41%
    18:00 +28°C° 0 mm 1 mps 685 mmHg 41%
    19:00 +26°C° 0 mm 2 mps 685 mmHg 44%
    20:00 +24°C° 0 mm 2 mps 685 mmHg 48%
    21:00 +21°C° 0 mm 2 mps 685 mmHg 51%
    22:00 +21°C° 0 mm 2 mps 685 mmHg 50%
    23:00 +21°C° 0 mm 2 mps 685 mmHg 50%

    Tomorrow, 3 June, Wednesday

    Time Temperature Precipitation Wind Pressure Humidity
    00:00 +20°C° 0 mm 2 mps 685 mmHg 49%
    01:00 +20°C° 0 mm 1 mps 685 mmHg 49%
    02:00 +20°C° 0 mm 1 mps 685 mmHg 50%
    03:00 +19°C° 0 mm 1 mps 685 mmHg 51%
    04:00 +20°C° 0 mm 1 mps 685 mmHg 50%
    05:00 +20°C° 0 mm 1 mps 685 mmHg 49%
    06:00 +21°C° 0 mm 1 mps 686 mmHg 49%
    07:00 +23°C° 0 mm 2 mps 686 mmHg 43%
    08:00 +25°C° 0 mm 2 mps 686 mmHg 38%
    09:00 +27°C° 0 mm 2 mps 686 mmHg 32%
    10:00 +29°C° 0 mm 2 mps 686 mmHg 30%
    11:00 +30°C° 0 mm 2 mps 686 mmHg 27%
    12:00 +31°C° 0 mm 3 mps 686 mmHg 25%
    13:00 +30°C° 0.2 mm 3 mps 686 mmHg 28%
    14:00 +29°C° 0.2 mm 3 mps 686 mmHg 32%
    15:00 +29°C° 0.2 mm 4 mps 685 mmHg 35%
    16:00 +28°C° 0 mm 3 mps 685 mmHg 36%
    17:00 +28°C° 0 mm 3 mps 685 mmHg 37%
    18:00 +28°C° 0 mm 2 mps 685 mmHg 38%
    19:00 +26°C° 0 mm 2 mps 686 mmHg 41%
    20:00 +24°C° 0 mm 2 mps 686 mmHg 43%
    21:00 +23°C° 0 mm 2 mps 686 mmHg 46%
    22:00 +21°C° 0 mm 2 mps 687 mmHg 45%
    23:00 +20°C° 0 mm 2 mps 687 mmHg 44%

    Day after tomorrow, 4 June, Thursday

    Time Temperature Precipitation Wind Pressure Humidity
    00:00 +19°C° 0 mm 2 mps 687 mmHg 44%
    01:00 +18°C° 0 mm 2 mps 687 mmHg 44%
    02:00 +17°C° 0 mm 2 mps 687 mmHg 44%
    03:00 +16°C° 0 mm 2 mps 687 mmHg 44%
    04:00 +18°C° 0 mm 1 mps 688 mmHg 44%
    05:00 +19°C° 0 mm 1 mps 688 mmHg 44%
    06:00 +20°C° 0 mm 1 mps 688 mmHg 44%
    07:00 +22°C° 0 mm 1 mps 689 mmHg 38%
    08:00 +24°C° 0 mm 1 mps 689 mmHg 32%
    09:00 +26°C° 0 mm 1 mps 689 mmHg 26%
    10:00 +27°C° 0 mm 1 mps 689 mmHg 24%
    11:00 +28°C° 0 mm 1 mps 689 mmHg 22%
    12:00 +30°C° 0 mm 1 mps 689 mmHg 20%
    13:00 +30°C° 0 mm 1 mps 689 mmHg 20%
    14:00 +31°C° 0 mm 1 mps 689 mmHg 19%
    15:00 +32°C° 0 mm 1 mps 689 mmHg 19%
    16:00 +31°C° 0 mm 1 mps 689 mmHg 21%
    17:00 +31°C° 0 mm 1 mps 689 mmHg 23%
    18:00 +31°C° 0 mm 1 mps 689 mmHg 25%
    19:00 +28°C° 0 mm 2 mps 689 mmHg 27%
    20:00 +26°C° 0 mm 3 mps 689 mmHg 29%
    21:00 +23°C° 0 mm 4 mps 690 mmHg 31%
    22:00 +22°C° 0 mm 3 mps 690 mmHg 32%
    23:00 +21°C° 0 mm 3 mps 690 mmHg 33%

    5 June, Friday

    Time Temperature Precipitation Wind Pressure Humidity
    00:00 +20°C° 0 mm 2 mps 690 mmHg 35%
    01:00 +19°C° 0 mm 2 mps 690 mmHg 36%
    02:00 +18°C° 0 mm 2 mps 690 mmHg 37%
    03:00 +18°C° 0 mm 2 mps 690 mmHg 39%
    04:00 +19°C° 0 mm 2 mps 690 mmHg 40%
    05:00 +20°C° 0 mm 1 mps 691 mmHg 42%
    06:00 +21°C° 0 mm 1 mps 691 mmHg 43%
    07:00 +23°C° 0 mm 1 mps 691 mmHg 38%
    08:00 +25°C° 0 mm 1 mps 691 mmHg 33%
    09:00 +27°C° 0 mm 1 mps 691 mmHg 27%
    10:00 +28°C° 0 mm 2 mps 692 mmHg 25%
    11:00 +29°C° 0 mm 2 mps 692 mmHg 22%
    12:00 +30°C° 0 mm 2 mps 692 mmHg 20%
    13:00 +31°C° 0 mm 3 mps 692 mmHg 20%
    14:00 +31°C° 0 mm 3 mps 691 mmHg 20%
    15:00 +33°C° 0 mm 4 mps 691 mmHg 19%
    16:00 +32°C° 0 mm 4 mps 691 mmHg 22%
    17:00 +30°C° 0 mm 3 mps 691 mmHg 25%
    18:00 +29°C° 0 mm 3 mps 691 mmHg 28%
    19:00 +27°C° 0 mm 2 mps 692 mmHg 30%
    20:00 +25°C° 0 mm 2 mps 692 mmHg 33%
    21:00 +21°C° 0 mm 2 mps 692 mmHg 36%
    22:00 +21°C° 0 mm 2 mps 692 mmHg 38%
    23:00 +20°C° 0 mm 2 mps 692 mmHg 40%

    6 June, Saturday

    Time Temperature Precipitation Wind Pressure Humidity
    00:00 +19°C° 0 mm 2 mps 692 mmHg 43%
    01:00 +18°C° 0 mm 2 mps 692 mmHg 45%
    02:00 +18°C° 0 mm 2 mps 692 mmHg 47%
    03:00 +17°C° 0 mm 2 mps 692 mmHg 49%
    04:00 +18°C° 0 mm 2 mps 692 mmHg 49%
    05:00 +19°C° 0 mm 2 mps 692 mmHg 49%
    06:00 +19°C° 0 mm 2 mps 692 mmHg 49%
    07:00 +21°C° 0 mm 2 mps 692 mmHg 44%
    08:00 +24°C° 0 mm 2 mps 693 mmHg 39%
    09:00 +26°C° 0 mm 2 mps 693 mmHg 34%
    10:00 +28°C° 0 mm 2 mps 693 mmHg 30%
    11:00 +29°C° 0 mm 2 mps 693 mmHg 27%
    12:00 +30°C° 0 mm 1 mps 693 mmHg 23%
    13:00 +31°C° 0 mm 1 mps 693 mmHg 22%
    14:00 +31°C° 0 mm 2 mps 692 mmHg 20%
    15:00 +32°C° 0 mm 2 mps 692 mmHg 19%
    16:00 +31°C° 0 mm 2 mps 692 mmHg 21%
    17:00 +31°C° 0 mm 3 mps 692 mmHg 24%
    18:00 +30°C° 0 mm 3 mps 692 mmHg 27%
    19:00 +28°C° 0 mm 3 mps 692 mmHg 32%
    20:00 +25°C° 0 mm 3 mps 693 mmHg 37%
    21:00 +23°C° 0 mm 2 mps 693 mmHg 42%
    22:00 +21°C° 0 mm 2 mps 693 mmHg 45%
    23:00 +20°C° 0 mm 2 mps 692 mmHg 48%

    7 June, Sunday

    Time Temperature Precipitation Wind Pressure Humidity
    00:00 +20°C° 0 mm 1 mps 692 mmHg 51%
    01:00 +19°C° 0 mm 1 mps 692 mmHg 52%
    02:00 +19°C° 0 mm 1 mps 692 mmHg 53%
    03:00 +18°C° 0 mm 1 mps 692 mmHg 55%
    04:00 +19°C° 0 mm 1 mps 692 mmHg 54%
    05:00 +20°C° 0 mm 1 mps 692 mmHg 53%
    06:00 +21°C° 0 mm 1 mps 692 mmHg 52%
    07:00 +23°C° 0 mm 1 mps 693 mmHg 47%
    08:00 +24°C° 0 mm 1 mps 693 mmHg 42%
    09:00 +26°C° 0 mm 1 mps 693 mmHg 36%
    10:00 +28°C° 0 mm 1 mps 693 mmHg 33%
    11:00 +29°C° 0 mm 1 mps 693 mmHg 29%
    12:00 +31°C° 0 mm 1 mps 693 mmHg 26%
    13:00 +31°C° 0 mm 1 mps 693 mmHg 23%
    14:00 +32°C° 0 mm 1 mps 692 mmHg 21%
    15:00 +33°C° 0 mm 1 mps 692 mmHg 19%
    16:00 +32°C° 0 mm 1 mps 692 mmHg 20%
    17:00 +32°C° 0 mm 1 mps 692 mmHg 22%
    18:00 +30°C° 0 mm 0 mps 692 mmHg 24%
    19:00 +29°C° 0 mm 1 mps 692 mmHg 27%
    20:00 +27°C° 0 mm 1 mps 692 mmHg 30%
    21:00 +24°C° 0 mm 2 mps 692 mmHg 33%
    22:00 +23°C° 0 mm 1 mps 691 mmHg 37%
    23:00 +23°C° 0 mm 1 mps 691 mmHg 41%
    Show more